Change the Weather History Date:

Monday, December 2, 2013

  Actual Average Record
Temperature  
Mean Temperature 40 °F -  
Max Temperature 42 °F 35 °F 44 °F (1990)
Min Temperature 39 °F 29 °F 16 °F (1987)
Degree Days  
Heating Degree Days 24    
Moisture  
Dew Point 36 °F    
Average Humidity 84    
Maximum Humidity 100    
Minimum Humidity 76    
Precipitation  
Precipitation 0.00 in - - ()
Sea Level Pressure  
Sea Level Pressure 30.40 in    
Wind  
Wind Speed 6 mph (East)    
Max Wind Speed 10 mph    
Max Gust Speed 17 mph    
Visibility 9 miles    
Events      
Averages and records for this station are not official NWS values.
T = Trace of Precipitation, MM = Missing Value Source: NWS Daily Summary

Daily Weather History Graph

Daily Weather History Graph

Search for Another Location

Airport or City:

Trip Planner

Search our weather history database for the weather conditions in past years. The results will help you decide how hot, cold, wet, or windy it might be!

Date:

Astronomy

Dec. 02, 2013 Rise Set
Actual Time 9:47 AM AKST 5:15 PM AKST
Civil Twilight 9:02 AM AKST 6:00 PM AKST
Nautical Twilight 8:15 AM AKST 6:47 PM AKST
Astronomical Twilight 7:31 AM AKST 7:31 PM AKST
Moon 9:19 AM AKST (12/2) 5:35 PM AKST (12/2)
Length of Visible Light 8h 57m
Length of Day
7h 28m
Waning Crescent, 0% of the Moon is Illuminated
Dec 2
Waning Crescent
Dec 2
New
Dec 9
First Quarter
Dec 17
Full
Dec 25
Last Quarter

Hourly Weather History & Observations

Time (AKST) Temp. Windchill Dew Point Humidity Pressure Visibility Wind Dir Wind Speed Gust Speed Precip Events Conditions
12:16 AM 39.2 °F 32.5 °F 33.8 °F 81% 30.39 in 10.0 mi ENE 10.4 mph - N/A   Overcast
12:36 AM 39.2 °F 34.2 °F 33.8 °F 81% 30.38 in 10.0 mi NE 6.9 mph - N/A   Overcast
12:56 AM 39.2 °F 35.0 °F 33.8 °F 81% 30.39 in 10.0 mi NNE 5.8 mph - N/A   Overcast
1:16 AM 39.2 °F - 35.6 °F 87% 30.39 in 10.0 mi Calm Calm - N/A   Overcast
1:36 AM 39.2 °F 35.0 °F 35.6 °F 87% 30.39 in 10.0 mi East 5.8 mph - N/A   Overcast
1:56 AM 39.2 °F 35.9 °F 35.6 °F 87% 30.39 in 10.0 mi ENE 4.6 mph - N/A   Overcast
2:16 AM 39.2 °F 34.2 °F 35.6 °F 87% 30.38 in 10.0 mi East 6.9 mph - N/A   Overcast
2:36 AM 39.2 °F 33.6 °F 35.6 °F 87% 30.38 in 10.0 mi East 8.1 mph - N/A   Overcast
2:56 AM 41.0 °F 37.1 °F 35.6 °F 81% 30.38 in 10.0 mi East 5.8 mph - N/A   Overcast
3:16 AM 39.2 °F 35.0 °F 35.6 °F 87% 30.38 in 10.0 mi East 5.8 mph - N/A   Overcast
3:36 AM 39.2 °F 35.9 °F 35.6 °F 87% 30.38 in 10.0 mi ENE 4.6 mph - N/A   Overcast
3:56 AM 39.2 °F - 35.6 °F 87% 30.39 in 10.0 mi Calm Calm - N/A   Overcast
4:16 AM 39.2 °F 37.0 °F 35.6 °F 87% 30.39 in 10.0 mi ESE 3.5 mph - N/A   Overcast
4:36 AM 41.0 °F - 35.6 °F 81% 30.40 in 10.0 mi Calm Calm - N/A   Overcast
4:56 AM 41.0 °F 37.1 °F 35.6 °F 81% 30.40 in 10.0 mi East 5.8 mph - N/A   Overcast
5:16 AM 41.0 °F 36.4 °F 35.6 °F 81% 30.39 in 10.0 mi East 6.9 mph - N/A   Overcast
5:36 AM 41.0 °F 37.1 °F 35.6 °F 81% 30.40 in 10.0 mi ENE 5.8 mph - N/A   Overcast
5:56 AM 41.0 °F 39.0 °F 35.6 °F 81% 30.39 in 10.0 mi ENE 3.5 mph - N/A   Overcast
6:16 AM 41.0 °F - 35.6 °F 81% 30.39 in 10.0 mi Calm Calm - N/A   Overcast
6:36 AM 41.0 °F 38.0 °F 35.6 °F 81% 30.39 in 10.0 mi ENE 4.6 mph - N/A   Overcast
6:56 AM 41.0 °F 36.4 °F 35.6 °F 81% 30.39 in 10.0 mi East 6.9 mph - N/A   Overcast
7:16 AM 41.0 °F 38.0 °F 35.6 °F 81% 30.39 in 10.0 mi East 4.6 mph - N/A   Overcast
7:36 AM 41.0 °F 39.0 °F 35.6 °F 81% 30.39 in 10.0 mi ENE 3.5 mph - N/A   Overcast
7:56 AM 41.0 °F 37.1 °F 35.6 °F 81% 30.40 in 10.0 mi NE 5.8 mph - N/A   Overcast
8:16 AM 41.0 °F 39.0 °F 35.6 °F 81% 30.40 in 10.0 mi ENE 3.5 mph - N/A   Overcast
8:36 AM 41.0 °F 39.0 °F 35.6 °F 81% 30.40 in 10.0 mi ENE 3.5 mph - N/A   Overcast
8:56 AM 41.0 °F 38.0 °F 33.8 °F 76% 30.41 in 10.0 mi ENE 4.6 mph - N/A   Overcast
9:16 AM 41.0 °F 39.0 °F 33.8 °F 76% 30.41 in 10.0 mi East 3.5 mph - N/A   Overcast
9:36 AM 41.0 °F 36.4 °F 33.8 °F 76% 30.42 in 10.0 mi NE 6.9 mph - N/A   Overcast
9:56 AM 41.0 °F 38.0 °F 33.8 °F 76% 30.42 in 10.0 mi ENE 4.6 mph - N/A   Overcast
10:16 AM 41.0 °F 39.0 °F 35.6 °F 81% 30.43 in 10.0 mi ESE 3.5 mph - N/A   Overcast
10:36 AM 39.2 °F 33.6 °F 35.6 °F 87% 30.43 in 10.0 mi East 8.1 mph - N/A   Overcast
10:56 AM 39.2 °F - 35.6 °F 87% 30.44 in 10.0 mi Calm Calm - N/A   Overcast
11:16 AM 39.2 °F 37.0 °F 35.6 °F 87% 30.44 in 9.0 mi SE 3.5 mph - N/A   Overcast
11:36 AM 39.2 °F 37.0 °F 35.6 °F 87% 30.45 in 10.0 mi SE 3.5 mph - N/A   Overcast
11:56 AM 39.2 °F 34.2 °F 35.6 °F 87% 30.44 in 10.0 mi ESE 6.9 mph - N/A   Overcast
12:16 PM 41.0 °F 37.1 °F 35.6 °F 81% 30.44 in 10.0 mi SE 5.8 mph - N/A   Overcast
12:36 PM 41.0 °F 38.0 °F 35.6 °F 81% 30.44 in 10.0 mi NE 4.6 mph - N/A   Overcast
12:56 PM 39.2 °F 33.6 °F 35.6 °F 87% 30.44 in 10.0 mi East 8.1 mph - N/A   Mostly Cloudy
1:16 PM 39.2 °F 34.2 °F 35.6 °F 87% 30.44 in 10.0 mi East 6.9 mph - N/A   Mostly Cloudy
1:36 PM 39.2 °F 35.9 °F 35.6 °F 87% 30.43 in 10.0 mi ENE 4.6 mph - N/A   Mostly Cloudy
1:56 PM 41.0 °F 37.1 °F 33.8 °F 76% 30.42 in 10.0 mi ENE 5.8 mph - N/A   Mostly Cloudy
2:16 PM 41.0 °F 35.8 °F 33.8 °F 76% 30.41 in 10.0 mi East 8.1 mph - N/A   Mostly Cloudy
2:36 PM 41.0 °F 35.8 °F 33.8 °F 76% 30.41 in 10.0 mi East 8.1 mph - N/A   Mostly Cloudy
2:56 PM 41.0 °F 37.1 °F 33.8 °F 76% 30.42 in 10.0 mi ENE 5.8 mph - N/A   Mostly Cloudy
3:16 PM 41.0 °F 38.0 °F 33.8 °F 76% 30.41 in 10.0 mi ENE 4.6 mph - N/A   Mostly Cloudy
3:36 PM 41.0 °F 38.0 °F 33.8 °F 76% 30.41 in 10.0 mi ESE 4.6 mph - N/A   Mostly Cloudy
3:56 PM 41.0 °F 35.2 °F 33.8 °F 76% 30.41 in 10.0 mi East 9.2 mph - N/A   Overcast
4:16 PM 41.0 °F 35.2 °F 35.6 °F 81% 30.40 in 10.0 mi ENE 9.2 mph 17.3 mph N/A   Overcast
4:36 PM 41.0 °F 36.4 °F 35.6 °F 81% 30.40 in 10.0 mi ENE 6.9 mph - N/A   Overcast
4:56 PM 41.0 °F 36.4 °F 35.6 °F 81% 30.40 in 10.0 mi East 6.9 mph - N/A   Overcast
5:16 PM 41.0 °F 37.1 °F 35.6 °F 81% 30.39 in 10.0 mi ENE 5.8 mph - N/A   Overcast
5:36 PM 41.0 °F 35.8 °F 35.6 °F 81% 30.39 in 10.0 mi ENE 8.1 mph - N/A   Overcast
5:56 PM 42.8 °F 39.3 °F 35.6 °F 76% 30.40 in 10.0 mi East 5.8 mph 16.1 mph N/A   Overcast
6:16 PM 41.0 °F 35.2 °F 35.6 °F 81% 30.41 in 10.0 mi ESE 9.2 mph - N/A   Overcast
6:36 PM 39.2 °F 35.0 °F 37.4 °F 93% 30.40 in 4.0 mi ENE 5.8 mph - N/A   Overcast
6:56 PM 39.2 °F - 37.4 °F 93% 30.40 in 4.0 mi Calm Calm - N/A   Overcast
7:16 PM 39.2 °F 34.2 °F 37.4 °F 93% 30.41 in 5.0 mi East 6.9 mph - N/A   Overcast
7:36 PM 39.2 °F 35.0 °F 37.4 °F 93% 30.41 in 7.0 mi East 5.8 mph - N/A   Overcast
7:56 PM 39.2 °F 33.6 °F 39.2 °F 100% 30.40 in 6.0 mi ENE 8.1 mph - N/A   Overcast
8:16 PM 41.0 °F 35.2 °F 39.2 °F 93% 30.39 in 5.0 mi East 9.2 mph - N/A   Overcast
8:36 PM 41.0 °F 38.0 °F 39.2 °F 93% 30.39 in 5.0 mi ENE 4.6 mph - N/A   Overcast
8:56 PM 41.0 °F 36.4 °F 39.2 °F 93% 30.39 in 5.0 mi East 6.9 mph - N/A   Overcast
9:16 PM 41.0 °F 38.0 °F 39.2 °F 93% 30.37 in 7.0 mi NE 4.6 mph - N/A   Overcast
9:36 PM 42.8 °F 41.1 °F 39.2 °F 87% 30.38 in 8.0 mi East 3.5 mph - N/A   Overcast
9:56 PM 42.8 °F - 41.0 °F 93% 30.38 in 5.0 mi Calm Calm - N/A   Overcast
10:16 PM 42.8 °F 38.0 °F 41.0 °F 93% 30.38 in 6.0 mi ESE 8.1 mph 16.1 mph N/A   Overcast
10:36 PM 42.8 °F 41.1 °F 41.0 °F 93% 30.37 in 5.0 mi ESE 3.5 mph - N/A   Overcast
10:56 PM 42.8 °F 41.1 °F 41.0 °F 93% 30.37 in 8.0 mi ENE 3.5 mph - N/A   Overcast
11:16 PM 42.8 °F 40.1 °F 41.0 °F 93% 30.37 in 10.0 mi ENE 4.6 mph - N/A   Overcast
11:36 PM 42.8 °F 40.1 °F 41.0 °F 93% 30.37 in 7.0 mi East 4.6 mph - N/A   Overcast
11:56 PM 42.8 °F 41.1 °F 41.0 °F 93% 30.37 in 5.0 mi ENE 3.5 mph - N/A   Overcast